Hourly Weather Dzialki

Today, 6 May, Thursday

Time Temperature Precipitation Wind Pressure Humidity
00:00 +4°C° 0 mm 7 mps 734 mmHg 87%
01:00 +4°C° 0 mm 6 mps 735 mmHg 86%
02:00 +3°C° 0 mm 6 mps 736 mmHg 87%
03:00 +3°C° 0 mm 6 mps 736 mmHg 87%
04:00 +2°C° 0 mm 6 mps 737 mmHg 87%
05:00 +3°C° 0 mm 6 mps 737 mmHg 81%
06:00 +4°C° 0 mm 7 mps 738 mmHg 76%
07:00 +4°C° 0 mm 7 mps 739 mmHg 70%
08:00 +6°C° 0 mm 7 mps 739 mmHg 61%
09:00 +8°C° 0 mm 7 mps 739 mmHg 52%
10:00 +9°C° 0 mm 7 mps 740 mmHg 42%
11:00 +10°C° 0 mm 7 mps 739 mmHg 41%
12:00 +11°C° 0 mm 6 mps 739 mmHg 40%
13:00 +13°C° 0 mm 6 mps 739 mmHg 38%
14:00 +11°C° 0 mm 6 mps 739 mmHg 44%
15:00 +11°C° 0 mm 6 mps 738 mmHg 50%
16:00 +10°C° 0 mm 6 mps 738 mmHg 56%
17:00 +9°C° 0 mm 5 mps 738 mmHg 61%
18:00 +8°C° 0 mm 4 mps 738 mmHg 66%
19:00 +8°C° 0 mm 3 mps 738 mmHg 71%
20:00 +8°C° 0.4 mm 3 mps 738 mmHg 76%
21:00 +8°C° 0.4 mm 3 mps 738 mmHg 80%
22:00 +8°C° 0.4 mm 3 mps 738 mmHg 85%
23:00 +8°C° 0.1 mm 3 mps 737 mmHg 85%

Tomorrow, 7 May, Friday

Time Temperature Precipitation Wind Pressure Humidity
00:00 +7°C° 0.1 mm 3 mps 737 mmHg 85%
01:00 +7°C° 0.1 mm 3 mps 737 mmHg 85%
02:00 +7°C° 0 mm 3 mps 737 mmHg 86%
03:00 +7°C° 0 mm 3 mps 736 mmHg 86%
04:00 +7°C° 0 mm 3 mps 736 mmHg 86%
05:00 +7°C° 0 mm 4 mps 736 mmHg 83%
06:00 +8°C° 0 mm 4 mps 736 mmHg 81%
07:00 +9°C° 0 mm 5 mps 737 mmHg 79%
08:00 +8°C° 0.3 mm 5 mps 737 mmHg 81%
09:00 +8°C° 0.3 mm 4 mps 737 mmHg 84%
10:00 +8°C° 0.3 mm 4 mps 738 mmHg 86%
11:00 +7°C° 0.6 mm 4 mps 738 mmHg 88%
12:00 +7°C° 0.6 mm 4 mps 739 mmHg 89%
13:00 +6°C° 0.6 mm 4 mps 739 mmHg 91%
14:00 +6°C° 0 mm 4 mps 740 mmHg 89%
15:00 +6°C° 0 mm 4 mps 740 mmHg 87%
16:00 +7°C° 0 mm 4 mps 741 mmHg 85%
17:00 +7°C° 0.1 mm 3 mps 741 mmHg 86%
18:00 +5°C° 0.1 mm 3 mps 742 mmHg 88%
19:00 +5°C° 0.1 mm 3 mps 742 mmHg 89%
20:00 +5°C° 0 mm 2 mps 742 mmHg 90%
21:00 +5°C° 0 mm 2 mps 743 mmHg 91%
22:00 +4°C° 0 mm 2 mps 743 mmHg 91%
23:00 +4°C° 0 mm 2 mps 743 mmHg 91%

Day after tomorrow, 8 May, Saturday

Time Temperature Precipitation Wind Pressure Humidity
00:00 +4°C° 0 mm 2 mps 743 mmHg 90%
01:00 +4°C° 0 mm 2 mps 743 mmHg 90%
02:00 +4°C° 0 mm 2 mps 743 mmHg 91%
03:00 +3°C° 0 mm 2 mps 743 mmHg 92%
04:00 +3°C° 0 mm 2 mps 743 mmHg 92%
05:00 +4°C° 0 mm 3 mps 742 mmHg 89%
06:00 +5°C° 0 mm 4 mps 742 mmHg 85%
07:00 +6°C° 0 mm 4 mps 742 mmHg 81%
08:00 +7°C° 0 mm 4 mps 742 mmHg 81%
09:00 +7°C° 0 mm 4 mps 741 mmHg 82%
10:00 +7°C° 0 mm 4 mps 741 mmHg 83%
11:00 +8°C° 0 mm 4 mps 740 mmHg 81%
12:00 +11°C° 0 mm 4 mps 740 mmHg 80%
13:00 +12°C° 0 mm 3 mps 739 mmHg 78%
14:00 +14°C° 0 mm 4 mps 739 mmHg 74%
15:00 +18°C° 0 mm 4 mps 738 mmHg 70%
16:00 +20°C° 0 mm 4 mps 738 mmHg 66%
17:00 +19°C° 0 mm 4 mps 738 mmHg 72%
18:00 +17°C° 0 mm 3 mps 737 mmHg 77%
19:00 +16°C° 0 mm 3 mps 737 mmHg 83%
20:00 +14°C° 0 mm 3 mps 737 mmHg 86%
21:00 +13°C° 0 mm 3 mps 737 mmHg 89%
22:00 +12°C° 0 mm 3 mps 737 mmHg 92%
23:00 +12°C° 0 mm 3 mps 736 mmHg 92%

9 May, Sunday

Time Temperature Precipitation Wind Pressure Humidity
00:00 +12°C° 0 mm 3 mps 736 mmHg 92%
01:00 +11°C° 0 mm 3 mps 736 mmHg 92%

10 May, Monday

Time Temperature Precipitation Wind Pressure Humidity

11 May, Tuesday

Time Temperature Precipitation Wind Pressure Humidity
Show more